Weather History for Greensboro, NC

Change the Weather History Date:

Tuesday, March 26, 2013

  Actual Average Record
Temperature  
Mean Temperature 39 °F 53 °F  
Max Temperature 47 °F 64 °F 86 °F (1929)
Min Temperature 30 °F 42 °F 12 °F (1972)
Degree Days  
Heating Degree Days 26 12  
Month to date heating degree days 553 412  
Since 1 July heating degree days 3257 3267  
Cooling Degree Days 0 0  
Month to date cooling degree days 0 0  
Year to date cooling degree days 0 0  
Moisture  
Dew Point 23 °F    
Average Humidity 55    
Maximum Humidity 72    
Minimum Humidity 38    
Precipitation  
Precipitation 0.00 in 0.13 in 0.88 in (1978)
Month to date precipitation 2.35 3.11  
Year to date precipitation 11.02 9.13  
Snow  
Snow 0.00 in 0.10 in 2.80 in (1971)
Month to date snowfall T 0.8  
Since 1 July snowfall 3.6 7.5  
Snow Depth 0.00 in    
Sea Level Pressure  
Sea Level Pressure 29.95 in    
Wind  
Wind Speed 10 mph (WNW)    
Max Wind Speed 20 mph    
Max Gust Speed 25 mph    
Visibility 10 miles    
Events      
T = Trace of Precipitation, MM = Missing Value Source: NWS Daily Summary

Daily Weather History Graph

Daily Weather History Graph

Search for Another Location

Airport:

Trip Planner

Search our weather history database for the weather conditions in past years. The results will help you decide how hot, cold, wet, or windy it might be!

Date:

Astronomy

Mar. 26, 2013 Rise Set
Actual Time 7:14 AM EDT 7:36 PM EDT
Civil Twilight 6:48 AM EDT 8:02 PM EDT
Nautical Twilight 6:18 AM EDT 8:32 PM EDT
Astronomical Twilight 5:47 AM EDT 9:03 PM EDT
Moon 7:11 PM EDT (3/26) 6:29 AM EDT (3/26)
Length of Visible Light 13h 13m
Length of Day
12h 22m
Waxing Gibbous, 99% of the Moon is Illuminated
Mar 26
Waxing Gibbous
Mar 27
Full
Apr 3
Last Quarter
Apr 10
New
Apr 18
First Quarter

Hourly Weather History & Observations

Time (EDT) Temp. Windchill Dew Point Humidity Pressure Visibility Wind Dir Wind Speed Gust Speed Precip Events Conditions
12:54 AM 35.1 °F 27.4 °F 23.0 °F 61% 29.83 in 10.0 mi West 10.4 mph - N/A   Mostly Cloudy
1:54 AM 34.0 °F 26.6 °F 24.1 °F 67% 29.83 in 10.0 mi West 9.2 mph - N/A   Overcast
2:54 AM 35.1 °F 27.9 °F 23.0 °F 61% 29.84 in 10.0 mi West 9.2 mph - N/A   Overcast
3:54 AM 35.1 °F 28.6 °F 23.0 °F 61% 29.85 in 10.0 mi West 8.1 mph - N/A   Overcast
4:54 AM 34.0 °F 28.0 °F 23.0 °F 64% 29.85 in 10.0 mi West 6.9 mph - N/A   Overcast
5:54 AM 33.1 °F 27.7 °F 24.1 °F 70% 29.86 in 10.0 mi WSW 5.8 mph - N/A   Overcast
6:54 AM 33.1 °F 30.0 °F 24.1 °F 70% 29.88 in 10.0 mi WSW 3.5 mph - N/A   Mostly Cloudy
7:54 AM 32.0 °F 27.5 °F 24.1 °F 73% 29.89 in 10.0 mi West 4.6 mph - N/A   Scattered Clouds
8:54 AM 37.9 °F 32.1 °F 24.1 °F 57% 29.91 in 10.0 mi WNW 8.1 mph - N/A   Partly Cloudy
9:54 AM 41.0 °F 36.4 °F 24.1 °F 51% 29.92 in 10.0 mi WNW 6.9 mph - N/A   Partly Cloudy
10:54 AM 43.0 °F 36.0 °F 24.1 °F 47% 29.94 in 10.0 mi NW 13.8 mph 20.7 mph N/A   Mostly Cloudy
11:54 AM 44.1 °F 38.1 °F 23.0 °F 43% 29.95 in 10.0 mi NNW 11.5 mph 20.7 mph N/A   Mostly Cloudy
12:54 PM 44.1 °F 38.6 °F 21.9 °F 42% 29.95 in 10.0 mi NNW 10.4 mph - N/A   Overcast
1:54 PM 44.1 °F 38.6 °F 23.0 °F 43% 29.96 in 10.0 mi NW 10.4 mph - N/A   Overcast
2:54 PM 45.0 °F 38.5 °F 23.0 °F 42% 29.96 in 10.0 mi NW 13.8 mph 20.7 mph N/A   Overcast
3:54 PM 45.0 °F 38.5 °F 21.0 °F 39% 29.96 in 10.0 mi NNW 13.8 mph 20.7 mph N/A   Overcast
4:54 PM 46.9 °F - 23.0 °F 39% 29.97 in 10.0 mi NNW 10.4 mph 17.3 mph N/A   Mostly Cloudy
5:54 PM 45.0 °F 37.9 °F 21.9 °F 40% 30.00 in 10.0 mi NW 16.1 mph - N/A   Mostly Cloudy
6:54 PM 43.0 °F 36.4 °F 21.9 °F 43% 30.03 in 10.0 mi NW 12.7 mph - N/A   Mostly Cloudy
7:54 PM 42.1 °F 35.2 °F 21.0 °F 43% 30.05 in 10.0 mi NW 12.7 mph 20.7 mph N/A   Scattered Clouds
8:54 PM 37.9 °F 30.9 °F 24.1 °F 57% 30.08 in 10.0 mi WNW 10.4 mph - N/A   Clear
9:54 PM 37.9 °F 29.6 °F 24.1 °F 57% 30.11 in 10.0 mi WNW 13.8 mph - N/A   Clear
10:54 PM 37.0 °F 28.9 °F 24.1 °F 59% 30.13 in 10.0 mi NW 12.7 mph - N/A   Clear
11:54 PM 35.1 °F 26.9 °F 24.1 °F 64% 30.13 in 10.0 mi NW 11.5 mph - N/A   Clear